Location: Wishram
(45.6596°N, 120.9636°W)
Time: 16:15:05
(UTC+00:00)

HTV-X1 - Visible Passes

Search period start: 15 May 2026 00:00
Search period end: 25 May 2026 00:00
Orbit: 372 x 383 km, 51.6° (Epoch: 15 May)

Date Brightness Start Highest point End Pass type
(mag) Time Alt. Az. Time Alt. Az. Time Alt. Az.
15 May ? 04:35:54 10° WNW 04:38:43 31° NNW 04:41:32 10° NE visible
15 May ? 06:12:26 10° NW 06:15:09 27° N 06:16:19 21° NE visible
15 May ? 07:48:16 10° WNW 07:48:24 11° WNW 07:48:24 11° WNW visible
16 May ? 05:11:21 10° WNW 05:14:00 25° N 05:16:39 10° ENE visible
16 May ? 06:47:24 10° NW 06:49:36 34° NNW 06:49:36 34° NNW visible
17 May ? 04:10:06 10° WNW 04:12:50 28° N 04:15:33 10° NE visible
17 May ? 05:46:28 10° NW 05:49:16 30° NNE 05:50:48 19° ENE visible
17 May ? 07:22:17 10° WNW 07:22:51 14° WNW 07:22:51 14° WNW visible
18 May ? 04:45:25 10° NW 04:48:05 26° N 04:50:45 10° ENE visible
18 May ? 06:21:19 10° WNW 06:24:01 52° N 06:24:01 52° N visible
19 May ? 05:20:23 10° NW 05:23:16 36° NNE 05:25:10 18° ENE visible
19 May ? 06:56:14 10° WNW 06:57:14 18° WNW 06:57:14 18° WNW visible
20 May ? 04:19:22 10° NW 04:22:05 28° N 04:24:49 10° ENE visible
20 May ? 05:55:11 10° WNW 05:58:16 81° NNE 05:58:22 79° ENE visible
21 May ? 04:54:11 10° NW 04:57:11 45° NNE 04:59:31 15° E visible
21 May ? 06:30:12 10° WNW 06:31:35 21° W 06:31:35 21° W visible
22 May ? 05:28:59 10° WNW 05:32:03 67° SSW 05:32:44 47° SSE visible
23 May ? 04:27:55 10° WNW 04:30:59 62° NNE 04:33:54 11° ESE visible
23 May ? 06:04:13 10° W 06:05:58 19° WSW 06:05:58 19° WSW visible
24 May ? 05:02:45 10° WNW 05:05:42 43° SW 05:07:09 24° SSE visible
